EW7502 Weather Reports


time (UTC)temp
C
wind
direction
speed
KPH
gust
KPH
rain 1hr
cm
rain 24hr
cm
rain mn
cm
humidity
%
barometer
mb
20260506191520 17 187 0.0 0.0 0.00 0.13 0.13 86 1006.8
20260506190019 17 205 0.0 0.0 0.00 0.13 0.13 84 1006.8
20260506184524 17 238 0.0 0.0 0.03 0.13 0.13 85 1006.8
20260506183018 17 211 0.0 0.0 0.03 0.13 0.13 86 1006.7
20260506181517 17 219 0.0 0.0 0.03 0.13 0.13 85 1007.0
20260506180017 17 178 0.0 0.0 0.03 0.13 0.13 84 1007.0
20260506174516 18 215 0.0 0.0 0.00 0.10 0.10 85 1007.2
20260506173016 18 208 0.0 0.0 0.00 0.10 0.10 85 1007.1
20260506171515 18 158 0.0 0.0 0.03 0.10 0.10 87 1006.8
20260506170013 18 194 0.0 0.0 0.05 0.10 0.10 88 1007.1
20260506164510 17 209 0.0 0.0 0.08 0.10 0.10 87 1007.5
20260506163008 17 220 0.0 0.0 0.10 0.10 0.10 85 1008.2
20260506161506 17 222 0.0 0.0 0.08 0.08 0.08 83 1008.5
20260506160004 17 219 0.0 0.0 0.05 0.05 0.05 80 1008.7
20260506154503 18 236 0.0 0.0 0.03 0.03 0.03 75 1008.8
20260506153002 19 273 0.0 0.0 0.00 0.00 0.00 73 1008.4
20260506151502 19 206 0.0 0.0 0.00 0.00 0.00 72 1008.6
20260506150106 20 209 0.0 0.0 0.00 0.00 0.00 69 1008.5
20260506144612 20 153 0.0 0.0 0.00 0.00 0.00 68 1008.7
20260506143059 20 232 0.0 0.0 0.00 0.00 0.00 67 1008.6
20260506141557 20 178 0.0 0.0 0.00 0.00 0.00 67 1008.8
20260506140107 20 232 0.0 0.0 0.00 0.00 0.00 69 1008.6
20260506134553 19 178 0.0 0.0 0.00 0.00 0.00 70 1008.7
20260506133116 20 181 0.0 0.0 0.00 0.00 0.00 69 1008.6
20260506131551 20 209 0.0 0.0 0.00 0.00 0.00 69 1008.8
20260506130131 19 225 0.0 0.0 0.00 0.00 0.00 71 1008.6
20260506124551 18 238 0.0 0.0 0.00 0.00 0.00 72 1008.7
20260506123048 18 185 0.0 0.0 0.00 0.00 0.00 73 1008.6
20260506121552 18 219 0.0 0.0 0.00 0.00 0.00 74 1008.9
20260506120044 18 220 0.0 0.0 0.00 0.00 0.00 74 1008.9
20260506114543 18 229 0.0 0.0 0.00 0.00 0.00 74 1008.9
20260506113049 18 204 0.0 0.0 0.00 0.00 0.00 75 1009.2
20260506111542 17 170 0.0 0.0 0.00 0.00 0.00 77 1009.0
20260506110043 17 222 0.0 0.0 0.00 0.00 0.00 78 1008.9
20260506104539 16 183 0.0 0.0 0.00 0.00 0.00 80 1008.8
20260506103037 16 225 0.0 0.0 0.00 0.00 0.00 80 1008.8
20260506101535 16 197 0.0 0.0 0.00 0.00 0.00 80 1008.9
20260506100034 16 229 0.0 0.0 0.00 0.00 0.00 80 1008.7
20260506094531 16 202 0.0 0.0 0.00 0.00 0.00 80 1008.6
20260506093034 17 204 0.0 0.0 0.00 0.00 0.00 80 1008.6
20260506091528 17 164 0.0 0.0 0.00 0.00 0.00 80 1008.7
20260506090036 17 182 0.0 0.0 0.00 0.00 0.00 80 1008.8
20260506084532 17 214 0.0 0.0 0.00 0.00 0.00 80 1008.8
20260506083030 17 196 0.0 0.0 0.00 0.00 0.00 79 1008.9
20260506081521 17 179 0.0 0.0 0.00 0.00 0.00 78 1009.0
20260506073018 17 197 0.0 0.0 0.00 0.00 0.00 77 1008.9
20260506071518 17 172 0.0 0.0 0.00 0.00 0.00 77 1009.0
20260506061509 18 218 0.0 0.0 0.00 0.00 0.00 73 1009.3
20260506050105 18 225 0.0 0.0 0.00 0.00 0.00 69 1009.9
20260506044558 18 199 0.0 0.0 0.00 0.00 0.00 68 1009.9
20260506043100 19 202 0.0 0.0 0.00 0.00 0.00 67 1010.0
20260506041553 19 232 0.0 0.0 0.00 0.00 0.00 67 1009.9
20260506040054 19 189 0.0 0.0 0.00 0.00 0.00 66 1009.9
20260506034610 20 158 0.0 0.0 0.00 0.00 0.00 65 1009.8
20260506033049 20 175 0.0 0.0 0.00 0.00 0.00 64 1009.8
20260506031552 20 188 0.0 0.0 0.00 0.00 0.00 63 1009.8
20260506030048 20 192 0.0 0.0 0.00 0.00 0.00 62 1009.8
20260506024552 20 153 0.0 0.0 0.00 0.00 0.00 61 1009.8
20260506023055 20 234 0.0 0.0 0.00 0.00 0.00 60 1009.9
20260506021547 20 150 0.0 0.0 0.00 0.00 0.00 60 1009.8
20260506020047 21 175 0.0 0.0 0.00 0.00 0.00 60 1009.8
20260506014546 21 226 0.0 0.0 0.00 0.00 0.00 58 1009.8
20260506013048 21 209 0.0 0.0 0.00 0.00 0.00 57 1009.6
20260506011545 21 179 0.0 0.0 0.00 0.00 0.00 55 1009.4
20260506010054 22 147 0.0 0.0 0.00 0.00 0.00 53 1009.3
20260506004543 22 170 0.0 0.0 0.00 0.00 0.00 49 1009.0
20260506003043 23 204 0.0 0.0 0.00 0.00 0.00 45 1008.8
20260506001546 23 219 0.0 0.0 0.00 0.00 0.00 44 1008.5
20260506000042 23 158 0.0 0.0 0.00 0.00 0.00 43 1008.5
20260505234541 24 159 0.0 0.0 0.00 0.00 0.00 43 1008.4
20260505233047 25 224 0.0 0.0 0.00 0.00 0.00 42 1008.2
20260505231540 25 208 0.0 0.0 0.00 0.00 0.00 40 1008.1
20260505230049 25 182 0.0 0.0 0.00 0.00 0.00 38 1007.8
20260505224543 26 206 0.0 0.0 0.00 0.00 0.00 36 1007.7
20260505223044 26 223 0.0 0.0 0.00 0.00 0.00 34 1007.6
20260505221538 26 212 0.0 0.0 0.00 0.00 0.00 34 1007.7
20260505220037 27 215 0.0 0.0 0.00 0.00 0.00 33 1007.5
20260505214537 27 197 0.0 0.0 0.00 0.00 0.00 31 1007.3
20260505213036 27 186 0.0 0.0 0.00 0.00 0.00 29 1007.3
20260505211536 27 170 0.0 0.0 0.00 0.00 0.00 30 1007.2
20260505210035 28 172 0.0 0.0 0.00 0.00 0.00 29 1007.1
20260505204535 28 204 0.0 0.0 0.00 0.00 0.00 30 1007.0
20260505203037 28 5 0.0 0.0 0.00 0.00 0.00 32 1007.0
20260505201542 28 217 0.0 0.0 0.00 0.00 0.00 33 1007.2
20260505200032 28 154 0.0 0.0 0.00 0.00 0.00 33 1007.2
20260505194532 28 177 0.0 0.0 0.00 0.00 0.00 34 1007.3
20260505193030 27 184 0.0 0.0 0.00 0.00 0.00 35 1007.5